| time (UTC) | temp C | wind direction | speed KPH | gust KPH | rain 1hr cm | rain 24hr cm | rain mn cm | humidity % | barometer mb |
| 20260906210521 | 21 | 0.0 | 3.2 | 0.00 | 0.00 | 0.00 | 66 | 1018.7 | |
| 20260906205540 | 21 | 113 | 1.6 | 9.7 | 0.00 | 0.00 | 0.00 | 66 | 1018.7 |
| 20260906204520 | 21 | 0.0 | 4.8 | 0.00 | 0.00 | 0.00 | 64 | 1018.6 | |
| 20260906203520 | 21 | 0.0 | 4.8 | 0.00 | 0.00 | 0.00 | 64 | 1018.6 | |
| 20260906202521 | 21 | 68 | 1.6 | 11.3 | 0.00 | 0.00 | 0.00 | 62 | 1018.5 |
| 20260906201520 | 22 | 248 | 1.6 | 4.8 | 0.00 | 0.00 | 0.00 | 63 | 1018.6 |
| 20260906200521 | 22 | 0.0 | 0.0 | 0.00 | 0.00 | 0.00 | 63 | 1018.7 | |
| 20260906195520 | 22 | 0.0 | 3.2 | 0.00 | 0.00 | 0.00 | 63 | 1018.6 | |
| 20260906194520 | 23 | 293 | 1.6 | 9.7 | 0.00 | 0.00 | 0.00 | 63 | 1018.8 |
| 20260906193520 | 23 | 45 | 3.2 | 16.1 | 0.00 | 0.00 | 0.00 | 61 | 1018.7 |
| 20260906192540 | 23 | 45 | 3.2 | 9.7 | 0.00 | 0.00 | 0.00 | 62 | 1018.7 |
| 20260906191520 | 23 | 90 | 4.8 | 12.9 | 0.00 | 0.00 | 0.00 | 63 | 1018.6 |
| 20260906190520 | 23 | 0.0 | 6.4 | 0.00 | 0.00 | 0.00 | 61 | 1018.6 | |
| 20260906185520 | 23 | 90 | 3.2 | 16.1 | 0.00 | 0.00 | 0.00 | 63 | 1018.6 |
| 20260906184520 | 23 | 68 | 4.8 | 11.3 | 0.00 | 0.00 | 0.00 | 64 | 1018.6 |
| 20260906183540 | 23 | 68 | 1.6 | 6.4 | 0.00 | 0.00 | 0.00 | 64 | 1018.6 |
| 20260906182520 | 23 | 0.0 | 4.8 | 0.00 | 0.00 | 0.00 | 64 | 1018.7 | |
| 20260906181540 | 23 | 90 | 3.2 | 16.1 | 0.00 | 0.00 | 0.00 | 64 | 1018.7 |
| 20260906180600 | 23 | 23 | 3.2 | 16.1 | 0.00 | 0.00 | 0.00 | 65 | 1018.6 |
| 20260906175521 | 23 | 68 | 3.2 | 12.9 | 0.00 | 0.00 | 0.00 | 67 | 1018.7 |
| 20260906174521 | 23 | 180 | 1.6 | 4.8 | 0.00 | 0.00 | 0.00 | 65 | 1018.7 |
| 20260906173520 | 23 | 0.0 | 6.4 | 0.00 | 0.00 | 0.00 | 61 | 1018.8 | |
| 20260906172520 | 23 | 135 | 1.6 | 8.0 | 0.00 | 0.00 | 0.00 | 64 | 1018.8 |
| 20260906171520 | 23 | 0.0 | 3.2 | 0.00 | 0.00 | 0.00 | 65 | 1018.7 | |
| 20260906170520 | 23 | 90 | 3.2 | 12.9 | 0.00 | 0.00 | 0.00 | 61 | 1018.8 |
| 20260906165520 | 23 | 293 | 1.6 | 6.4 | 0.00 | 0.00 | 0.00 | 63 | 1018.7 |
| 20260906164520 | 23 | 68 | 1.6 | 11.3 | 0.00 | 0.00 | 0.00 | 63 | 1018.7 |
| 20260906163540 | 23 | 23 | 3.2 | 14.5 | 0.00 | 0.00 | 0.00 | 66 | 1018.7 |
| 20260906162520 | 23 | 90 | 3.2 | 14.5 | 0.00 | 0.00 | 0.00 | 66 | 1018.7 |
| 20260906161521 | 23 | 113 | 1.6 | 11.3 | 0.00 | 0.00 | 0.00 | 65 | 1018.7 |
| 20260906160521 | 23 | 45 | 1.6 | 6.4 | 0.00 | 0.00 | 0.00 | 66 | 1018.7 |
| 20260906155520 | 23 | 68 | 1.6 | 8.0 | 0.00 | 0.00 | 0.00 | 66 | 1018.7 |
| 20260906154520 | 23 | 90 | 1.6 | 8.0 | 0.00 | 0.00 | 0.00 | 71 | 1018.7 |
| 20260906153540 | 22 | 45 | 4.8 | 16.1 | 0.00 | 0.00 | 0.00 | 72 | 1018.5 |
| 20260906152520 | 21 | 248 | 3.2 | 8.0 | 0.00 | 0.00 | 0.00 | 74 | 1018.3 |
| 20260906151520 | 21 | 68 | 4.8 | 16.1 | 0.00 | 0.00 | 0.00 | 75 | 1018.4 |
| 20260906150520 | 21 | 90 | 1.6 | 11.3 | 0.00 | 0.00 | 0.00 | 79 | 1018.4 |
| 20260906145540 | 20 | 45 | 3.2 | 14.5 | 0.00 | 0.00 | 0.00 | 78 | 1018.4 |
| 20260906144520 | 20 | 23 | 3.2 | 12.9 | 0.00 | 0.00 | 0.00 | 80 | 1018.4 |
| 20260906143520 | 20 | 0.0 | 6.4 | 0.00 | 0.00 | 0.00 | 82 | 1018.4 | |
| 20260906142540 | 20 | 45 | 3.2 | 12.9 | 0.00 | 0.00 | 0.00 | 84 | 1018.5 |
| 20260906141520 | 19 | 68 | 1.6 | 8.0 | 0.00 | 0.00 | 0.00 | 84 | 1018.3 |
| 20260906140541 | 19 | 293 | 1.6 | 9.7 | 0.00 | 0.00 | 0.00 | 85 | 1018.0 |
| 20260906135540 | 18 | 90 | 1.6 | 6.4 | 0.00 | 0.00 | 0.00 | 88 | 1017.8 |
| 20260906134540 | 18 | 135 | 1.6 | 11.3 | 0.00 | 0.00 | 0.00 | 92 | 1017.8 |
| 20260906133520 | 18 | 0.0 | 4.8 | 0.00 | 0.00 | 0.00 | 94 | 1017.9 | |
| 20260906132520 | 18 | 45 | 1.6 | 12.9 | 0.00 | 0.00 | 0.00 | 95 | 1017.9 |
| 20260906131520 | 18 | 23 | 1.6 | 9.7 | 0.00 | 0.00 | 0.00 | 95 | 1017.7 |
| 20260906130520 | 17 | 68 | 3.2 | 14.5 | 0.00 | 0.00 | 0.00 | 96 | 1017.6 |
| 20260906125520 | 17 | 90 | 3.2 | 14.5 | 0.00 | 0.00 | 0.00 | 96 | 1017.7 |
| 20260906124520 | 17 | 45 | 1.6 | 9.7 | 0.00 | 0.00 | 0.00 | 96 | 1017.6 |
| 20260906123520 | 16 | 0.0 | 0.0 | 0.00 | 0.00 | 0.00 | 95 | 1017.4 | |
| 20260906122520 | 16 | 0.0 | 0.0 | 0.00 | 0.00 | 0.00 | 94 | 1017.4 | |
| 20260906121520 | 15 | 0.0 | 0.0 | 0.00 | 0.00 | 0.00 | 94 | 1017.4 | |
| 20260906120520 | 15 | 0.0 | 0.0 | 0.00 | 0.00 | 0.00 | 94 | 1017.4 | |
| 20260906115520 | 15 | 0.0 | 0.0 | 0.00 | 0.00 | 0.00 | 93 | 1017.1 | |
| 20260906114520 | 15 | 0.0 | 0.0 | 0.00 | 0.00 | 0.00 | 93 | 1016.9 | |
| 20260906113520 | 15 | 0.0 | 0.0 | 0.00 | 0.00 | 0.00 | 93 | 1016.9 | |
| 20260906112520 | 15 | 0.0 | 0.0 | 0.00 | 0.00 | 0.00 | 93 | 1016.9 | |
| 20260906111520 | 15 | 0.0 | 0.0 | 0.00 | 0.00 | 0.00 | 92 | 1016.7 | |
| 20260906110520 | 15 | 0.0 | 0.0 | 0.00 | 0.00 | 0.00 | 92 | 1016.6 | |
| 20260906105520 | 15 | 0.0 | 0.0 | 0.00 | 0.00 | 0.00 | 92 | 1016.5 | |
| 20260906104540 | 15 | 0.0 | 0.0 | 0.00 | 0.00 | 0.00 | 92 | 1016.5 | |
| 20260906103520 | 15 | 0.0 | 0.0 | 0.00 | 0.00 | 0.00 | 92 | 1016.4 | |
| 20260906102540 | 15 | 0.0 | 0.0 | 0.00 | 0.00 | 0.00 | 92 | 1016.2 | |
| 20260906101520 | 15 | 0.0 | 0.0 | 0.00 | 0.00 | 0.00 | 91 | 1016.1 | |
| 20260906100520 | 16 | 0.0 | 0.0 | 0.00 | 0.00 | 0.00 | 91 | 1016.1 | |
| 20260906095520 | 16 | 0.0 | 0.0 | 0.00 | 0.00 | 0.00 | 91 | 1015.9 | |
| 20260906094520 | 16 | 0.0 | 0.0 | 0.00 | 0.00 | 0.00 | 92 | 1015.8 | |
| 20260906093520 | 16 | 0.0 | 0.0 | 0.00 | 0.00 | 0.00 | 92 | 1015.8 | |
| 20260906092520 | 16 | 0.0 | 0.0 | 0.00 | 0.00 | 0.00 | 91 | 1015.7 | |
| 20260906091520 | 16 | 0.0 | 0.0 | 0.00 | 0.00 | 0.00 | 92 | 1015.6 | |
| 20260906090520 | 16 | 0.0 | 0.0 | 0.00 | 0.00 | 0.00 | 91 | 1015.5 | |
| 20260906085520 | 16 | 0.0 | 0.0 | 0.00 | 0.00 | 0.00 | 91 | 1015.3 | |
| 20260906084520 | 16 | 0.0 | 0.0 | 0.00 | 0.00 | 0.00 | 91 | 1015.1 | |
| 20260906083540 | 16 | 0.0 | 0.0 | 0.00 | 0.00 | 0.00 | 91 | 1015.0 | |
| 20260906082520 | 16 | 0.0 | 0.0 | 0.00 | 0.00 | 0.00 | 91 | 1015.0 | |
| 20260906081520 | 16 | 0.0 | 0.0 | 0.00 | 0.00 | 0.00 | 91 | 1015.1 | |
| 20260906080520 | 16 | 0.0 | 0.0 | 0.00 | 0.00 | 0.00 | 91 | 1015.0 | |
| 20260906075520 | 17 | 0.0 | 0.0 | 0.00 | 0.00 | 0.00 | 91 | 1015.0 | |
| 20260906074520 | 17 | 0.0 | 0.0 | 0.00 | 0.00 | 0.00 | 91 | 1014.9 | |
| 20260906073520 | 17 | 0.0 | 0.0 | 0.00 | 0.00 | 0.00 | 91 | 1014.8 | |
| 20260906072540 | 17 | 0.0 | 0.0 | 0.00 | 0.00 | 0.00 | 91 | 1014.9 | |
| 20260906071520 | 17 | 0.0 | 0.0 | 0.00 | 0.00 | 0.00 | 91 | 1014.9 | |
| 20260906070520 | 17 | 0.0 | 0.0 | 0.00 | 0.00 | 0.00 | 91 | 1014.9 | |
| 20260906065520 | 17 | 0.0 | 0.0 | 0.00 | 0.00 | 0.00 | 91 | 1014.9 | |
| 20260906064553 | 17 | 0.0 | 0.0 | 0.00 | 0.00 | 0.00 | 91 | 1014.9 | |
| 20260906063520 | 17 | 0.0 | 0.0 | 0.00 | 0.00 | 0.00 | 91 | 1015.0 | |
| 20260906062520 | 17 | 0.0 | 0.0 | 0.00 | 0.00 | 0.00 | 90 | 1014.9 | |
| 20260906061520 | 17 | 0.0 | 0.0 | 0.00 | 0.00 | 0.00 | 90 | 1014.9 | |
| 20260906060520 | 17 | 0.0 | 0.0 | 0.00 | 0.00 | 0.00 | 90 | 1015.0 | |
| 20260906055520 | 17 | 0.0 | 0.0 | 0.00 | 0.00 | 0.00 | 90 | 1015.0 | |
| 20260906054520 | 17 | 0.0 | 0.0 | 0.00 | 0.00 | 0.00 | 90 | 1015.0 | |
| 20260906053520 | 17 | 0.0 | 0.0 | 0.00 | 0.00 | 0.00 | 89 | 1014.9 | |
| 20260906052520 | 17 | 0.0 | 0.0 | 0.00 | 0.00 | 0.00 | 89 | 1015.0 | |
| 20260906051520 | 17 | 0.0 | 0.0 | 0.00 | 0.00 | 0.00 | 89 | 1014.9 | |
| 20260906050520 | 17 | 0.0 | 0.0 | 0.00 | 0.00 | 0.00 | 89 | 1015.1 | |
| 20260906045520 | 17 | 0.0 | 0.0 | 0.00 | 0.00 | 0.00 | 89 | 1014.9 | |
| 20260906044520 | 17 | 0.0 | 0.0 | 0.00 | 0.00 | 0.00 | 89 | 1014.8 | |
| 20260906043520 | 17 | 0.0 | 0.0 | 0.00 | 0.00 | 0.00 | 87 | 1014.7 | |
| 20260906042520 | 17 | 0.0 | 0.0 | 0.00 | 0.00 | 0.00 | 87 | 1014.7 | |
| 20260906041520 | 17 | 0.0 | 0.0 | 0.00 | 0.00 | 0.00 | 87 | 1014.8 | |
| 20260906040520 | 17 | 0.0 | 0.0 | 0.00 | 0.00 | 0.00 | 87 | 1014.7 | |
| 20260906035519 | 17 | 0.0 | 0.0 | 0.00 | 0.00 | 0.00 | 88 | 1014.7 | |
| 20260906034541 | 17 | 0.0 | 0.0 | 0.00 | 0.00 | 0.00 | 86 | 1014.6 | |
| 20260906033519 | 18 | 0.0 | 0.0 | 0.00 | 0.00 | 0.00 | 86 | 1014.5 | |
| 20260906032519 | 18 | 0.0 | 0.0 | 0.00 | 0.00 | 0.00 | 85 | 1014.5 | |
| 20260906031521 | 18 | 0.0 | 0.0 | 0.00 | 0.00 | 0.00 | 85 | 1014.5 | |
| 20260906030521 | 18 | 0.0 | 0.0 | 0.00 | 0.00 | 0.00 | 84 | 1014.4 | |
| 20260906025541 | 18 | 0.0 | 0.0 | 0.00 | 0.00 | 0.00 | 84 | 1014.4 | |
| 20260906024521 | 18 | 0.0 | 0.0 | 0.00 | 0.00 | 0.00 | 84 | 1014.4 | |
| 20260906023521 | 18 | 0.0 | 0.0 | 0.00 | 0.00 | 0.00 | 84 | 1014.3 | |
| 20260906022539 | 18 | 0.0 | 0.0 | 0.00 | 0.00 | 0.00 | 84 | 1014.3 | |
| 20260906021520 | 18 | 0.0 | 0.0 | 0.00 | 0.00 | 0.00 | 83 | 1014.2 | |
| 20260906020521 | 18 | 0.0 | 0.0 | 0.00 | 0.00 | 0.00 | 82 | 1014.2 | |
| 20260906015521 | 19 | 0.0 | 0.0 | 0.00 | 0.00 | 0.00 | 82 | 1014.3 | |
| 20260906014521 | 19 | 0.0 | 0.0 | 0.00 | 0.00 | 0.00 | 83 | 1014.2 | |
| 20260906013520 | 19 | 0.0 | 0.0 | 0.00 | 0.00 | 0.00 | 82 | 1014.0 | |
| 20260906012521 | 20 | 0.0 | 0.0 | 0.00 | 0.00 | 0.00 | 82 | 1014.0 | |
| 20260906011521 | 20 | 0.0 | 0.0 | 0.00 | 0.00 | 0.00 | 81 | 1014.0 | |
| 20260906010521 | 20 | 0.0 | 0.0 | 0.00 | 0.00 | 0.00 | 81 | 1014.0 | |
| 20260906005521 | 20 | 0.0 | 0.0 | 0.00 | 0.00 | 0.00 | 80 | 1014.0 | |
| 20260906004521 | 20 | 0.0 | 0.0 | 0.00 | 0.00 | 0.00 | 80 | 1013.8 | |
| 20260906003541 | 20 | 0.0 | 0.0 | 0.00 | 0.00 | 0.00 | 79 | 1013.8 | |
| 20260906002559 | 20 | 0.0 | 0.0 | 0.00 | 0.00 | 0.00 | 79 | 1013.8 | |
| 20260906001521 | 21 | 0.0 | 0.0 | 0.00 | 0.00 | 0.00 | 79 | 1013.8 | |
| 20260906000521 | 21 | 0.0 | 0.0 | 0.00 | 0.00 | 0.00 | 78 | 1013.8 | |
| 20260905235541 | 21 | 0.0 | 0.0 | 0.00 | 0.00 | 0.00 | 78 | 1013.8 | |
| 20260905234521 | 21 | 0.0 | 0.0 | 0.00 | 0.00 | 0.00 | 78 | 1013.8 | |
| 20260905233521 | 21 | 0.0 | 0.0 | 0.00 | 0.00 | 0.00 | 78 | 1013.8 | |
| 20260905232521 | 21 | 0.0 | 0.0 | 0.00 | 0.00 | 0.00 | 77 | 1013.9 | |
| 20260905231521 | 21 | 0.0 | 0.0 | 0.00 | 0.00 | 0.00 | 78 | 1014.0 | |
| 20260905230601 | 21 | 0.0 | 1.6 | 0.00 | 0.00 | 0.00 | 77 | 1013.9 | |
| 20260905225521 | 21 | 0.0 | 0.0 | 0.00 | 0.00 | 0.00 | 77 | 1013.9 | |
| 20260905224521 | 22 | 0.0 | 0.0 | 0.00 | 0.00 | 0.00 | 77 | 1014.1 | |
| 20260905223521 | 22 | 0.0 | 1.6 | 0.00 | 0.00 | 0.00 | 76 | 1014.0 | |
| 20260905222520 | 22 | 0.0 | 1.6 | 0.00 | 0.00 | 0.00 | 76 | 1013.7 | |
| 20260905221520 | 22 | 0.0 | 3.2 | 0.00 | 0.00 | 0.00 | 75 | 1013.7 | |
| 20260905220521 | 22 | 0.0 | 4.8 | 0.00 | 0.00 | 0.00 | 75 | 1013.6 | |
| 20260905215521 | 22 | 0.0 | 4.8 | 0.00 | 0.00 | 0.00 | 74 | 1013.6 | |
| 20260905214520 | 22 | 0.0 | 1.6 | 0.00 | 0.00 | 0.00 | 73 | 1013.5 | |
| 20260905213521 | 22 | 0.0 | 6.4 | 0.00 | 0.00 | 0.00 | 73 | 1013.4 | |
| 20260905212520 | 23 | 0.0 | 3.2 | 0.00 | 0.00 | 0.00 | 72 | 1013.5 | |
| 20260905211521 | 23 | 0.0 | 6.4 | 0.00 | 0.00 | 0.00 | 73 | 1013.3 |